Home > Weather > Faridabad > Past weeks

Flag for India Past Weather in Faridabad, Haryana, India — Yesterday and Last 2 Weeks

Now
86 °F

Broken clouds.


Feels Like: 97 °F
Forecast: 80 / 93 °F
Wind: 12 mph from East

Location: New Delhi Palam Airport

Current Time: Aug 24, 2016 at 12:17:32 PM

Latest Report: Aug 24, 2016 at 11:30 AM


Visibility: 2 mi

Pressure: 29.65 "Hg

Humidity: 75%

Dew Point: 77 °F

Location of FaridabadLocation

Past Weather in Faridabad — Graph

°F

Faridabad Temperature Yesterday

Maximum temperature yesterday: 91 °F (at 1:00 PM)
Minimum temperature yesterday: 82 °F (at 4:30 AM)
Average temperature yesterday: 87 °F

High & Low Weather Summary for the Past Weeks

 TemperatureHumidityPressure
High95 °F (Aug 15, 3:30 PM)100% (Aug 10, 7:30 PM)29.71 "Hg (Aug 10, 7:30 PM)
Low79 °F (Aug 13, 1:30 AM)53% (Aug 22, 2:00 PM)29.42 "Hg (Aug 16, 6:00 PM)
Average86 °F79%29.57 "Hg
* Reported Aug 9 10:30 AM — Aug 24 11:00 AM, Faridabad, Weather by CustomWeather, © 2016

Note: Actual official high and low records may vary slightly from our data, if they occured in-between our weather recording intervals... More about our weather records

Advertising

Faridabad Weather History for the Previous 24 Hours

Scroll right to see more
 ConditionsComfort  
Time TempWeatherWind HumidityBarometerVisibility
11:00 AM
Wed, Aug 24
86 °FBroken clouds.12 mph75%29.65 "Hg2 mi
10:30 AM86 °FFog.12 mph79%29.65 "Hg2 mi
10:00 AM84 °FFog.12 mph79%29.65 "Hg2 mi
9:30 AM84 °FFog.13 mph79%29.68 "Hg2 mi
9:00 AM84 °FFog.13 mph79%29.68 "Hg2 mi
8:30 AM84 °FFog.12 mph79%29.65 "Hg2 mi
8:00 AM84 °FFog.12 mph79%29.65 "Hg2 mi
7:30 AM84 °FFog.10 mph79%29.65 "Hg2 mi
7:00 AM84 °FBroken clouds.7 mph79%29.62 "Hg2 mi
6:30 AM84 °FFog.10 mph79%29.62 "Hg2 mi
6:00 AM84 °FFog.10 mph79%29.62 "Hg2 mi
5:30 AM84 °FFog.10 mph79%29.62 "Hg2 mi
5:00 AM84 °FFog.12 mph79%29.62 "Hg2 mi
4:30 AM84 °FFog.8 mph79%29.62 "Hg2 mi
4:00 AM84 °FFog.8 mph79%29.62 "Hg2 mi
3:30 AM84 °FFog.7 mph79%29.62 "Hg2 mi
3:00 AM84 °FFog.7 mph79%29.62 "Hg2 mi
2:30 AM84 °FFog.7 mph79%29.62 "Hg2 mi
2:00 AM84 °FFog.7 mph79%29.62 "Hg2 mi
1:30 AM86 °FFog.7 mph79%29.62 "Hg2 mi
1:00 AM86 °FFog.7 mph79%29.62 "Hg2 mi
12:30 AM86 °FFog.6 mph79%29.65 "Hg2 mi
12:00 AM86 °FFog.5 mph79%29.65 "Hg2 mi
11:30 PM
Tue, Aug 23
86 °FFog.5 mph79%29.65 "Hg2 mi
11:00 PM86 °FFog.5 mph79%29.65 "Hg2 mi
10:30 PM86 °FFog.5 mph79%29.65 "Hg2 mi
10:00 PM86 °FFog.5 mph79%29.65 "Hg2 mi
9:30 PM86 °FFog.5 mph79%29.65 "Hg2 mi
9:00 PM86 °FFog.5 mph79%29.65 "Hg2 mi
8:30 PM86 °FPassing clouds.5 mph75%29.62 "Hg2 mi
8:00 PM88 °FPassing clouds.5 mph70%29.62 "Hg2 mi
7:30 PM88 °FPassing clouds.3 mph70%29.62 "Hg2 mi
7:00 PM90 °FScattered clouds.6 mph63%29.59 "Hg2 mi
6:30 PM90 °FBroken clouds.7 mph63%29.59 "Hg2 mi
6:00 PM90 °FBroken clouds.7 mph63%29.59 "Hg3 mi
5:30 PM91 °FBroken clouds.6 mph59%29.59 "Hg3 mi
5:00 PM91 °FBroken clouds.6 mph59%29.59 "Hg3 mi
4:30 PM91 °FBroken clouds.5 mph59%29.59 "Hg3 mi
4:00 PM91 °FBroken clouds.7 mph59%29.62 "Hg3 mi
3:30 PM91 °FBroken clouds.8 mph59%29.65 "Hg3 mi
3:00 PM91 °FBroken clouds.7 mph59%29.65 "Hg3 mi
2:30 PM91 °FBroken clouds.9 mph59%29.65 "Hg3 mi
2:00 PM91 °FBroken clouds.7 mph59%29.65 "Hg3 mi
1:30 PM91 °FBroken clouds.7 mph63%29.68 "Hg3 mi
1:00 PM91 °FBroken clouds.7 mph63%29.68 "Hg3 mi
12:30 PM90 °FBroken clouds.8 mph67%29.68 "Hg3 mi
12:00 PM90 °FBroken clouds.7 mph67%29.68 "Hg3 mi
Weather by CustomWeather, © 2016

See weather overviewHow to use our weather pages